Regional Weather Roundup
Issued by NWS Green Bay, WI

Home | Current Version | Previous Version | Graphics & Text | Print | Product List | Glossary Off
Versions: 1 2 3 4 5 6 7 8 9 10 11 12 13 14 15 16 17 18 19 20 21 22 23 24 25 26 27 28 29 30 31 32 33 34 35 36 37 38 39 40 41 42 43 44 45 46 47 48 49 50

000
ASUS43 KGRB 272011
RWRGRB

NORTH-CENTRAL AND NORTHEAST WISCONSIN REGIONAL WEATHER ROUNDUP
NATIONAL WEATHER SERVICE GREEN BAY WI
200 PM CST MON FEB 27 2017

WIZ005-009-010>012-018-019-272100-
NORTH CENTRAL WISCONSIN

CITY           SKY/WX    TMP DP  RH WIND       PRES   REMARKS
IRONWOOD       MOSUNNY   38  22  52 NW5       29.92F
MANITOWISH WTR MOSUNNY   38  19  45 SW14G24   29.92F
ARBOR VITAE    SUNNY     41  18  38 SW13G20     N/A
EAGLE RIVER    SUNNY     38  11  32 SW15G25   29.94F
LAND O LAKES   MOSUNNY   40  15  37 SW9G18    29.95F
RHINELANDER    CLOUDY    40  14  34 SW20G30   29.96F
PHILLIPS       SUNNY     38  19  46 S15G21    29.94F
ANTIGO         SUNNY     38  19  45 SW10      30.00F
TOMAHAWK       CLOUDY    39  12  33 SW7       29.97F
MERRILL        NOT AVBL
$$

WIZ013-073-272100-
NORTHEAST WISCONSIN

CITY           SKY/WX    TMP DP  RH WIND       PRES   REMARKS
IRON MOUNTAIN  SUNNY     40  17  39 S13G22    29.98F
MARINETTE      SUNNY     39  22  50 S14       30.07F
OCONTO         SUNNY     39  22  51 S10G20    30.07F
$$

WIZ017-030-035>037-045-272100-
CENTRAL WISCONSIN

CITY           SKY/WX    TMP DP  RH WIND       PRES   REMARKS
MEDFORD        CLOUDY    36  20  53 S8        29.98F
WAUSAU         SUNNY     38  18  44 S9        29.99F
MOSINEE        PTSUNNY   39  21  48 S13       30.01F
MARSHFIELD     MOSUNNY   40  18  41 S10       29.98F
WISC RAPIDS    SUNNY     42  19  39 SW10      30.02F
STEVENS POINT  SUNNY     39  18  42 S9        30.02F
WAUPACA        MOSUNNY   44  23  42 SE10      30.05F
SHAWANO        SUNNY     43  19  38 SW3       30.06F
CLINTONVILLE   SUNNY     41  21  45 S9        30.05F
WAUTOMA        MOSUNNY   41  24  51 S7        30.05F
$$

WIZ038-039-048-051-272100-
FOX VALLEY

CITY           SKY/WX    TMP DP  RH WIND       PRES   REMARKS
NWS GREEN BAY  MOSUNNY   40  27  59 S10       30.07F
APPLETON       PTSUNNY   39  21  48 S9        30.05F
OSHKOSH        MOSUNNY   39  26  59 S9        30.06F
FOND DU LAC    CLOUDY    40  26  57 S8        30.06F
$$

WIZ022-050-052-272100-
EAST CENTRAL WISCONSIN

CITY           SKY/WX    TMP DP  RH WIND       PRES   REMARKS
EPHRAIM        FAIR      39  26  60 S12G17    30.07F
WASHINGTON ISL FAIR      35  28  76 S14G21    30.08F
STURGEON BAY   SUNNY     38  26  62 S17       30.08F
MANITOWOC      MOSUNNY   38  28  67 S16       30.10F
SHEBOYGAN      CLOUDY    37  29  72 S8        30.10F
$$

LMZ563-521-522-541>543-272100-
LAKESHORE

STATION/POSITION TIME  TEMP    WIND        PRES    VSBY  WAVE
                       AIR SEA DIR/SP/G                  HT/PER
                 (UTC) (F)     (DEG/KT/KT) (MB)    (MI)  (FT/S)
SHEBOYGAN LKSHOR 2000   36     160/  8/  9 1019.9F
KEWAUNEE LKSHORE 1948   36     180/ 13/ 15 1019.0F
NORTHPORT PIER   1940   38     160/  8/ 14 1019.0S
SISTER BAY LKSHO 1935          190/ 15/ 17   N/A
CHAMBERS ISLAND  1940   37     190/  6/ 11 1018.6F
MENOMINEE LKSHOR 1948   37     160/ 11/ 15 1017.6F
$$



USA.gov is the U.S. government's official web portal to all federal, state and local government web resources and services.